Location: Drummondville
(45.8830°N, 72.4830°W)
Time: 19:01:48
(UTC-05:00)

Vanguard 2 Rocket - Visible Passes

Search period start: 19 November 2017 00:00
Search period end: 29 November 2017 00:00
Orbit: 556 x 3326 km, 32.9° (Epoch: 19 November)

Date Brightness Start Highest point End Pass type
(mag) Time Alt. Az. Time Alt. Az. Time Alt. Az.
19 Nov 10.3 01:09:15 13° ESE 01:09:15 13° ESE 01:10:18 10° ESE visible
19 Nov 9.0 03:15:04 37° S 03:15:42 37° S 03:23:39 10° ESE visible
19 Nov 8.7 05:20:53 13° WSW 05:29:09 33° SSW 05:35:02 10° SE visible
20 Nov 9.4 02:19:01 31° SE 02:19:01 31° SE 02:24:44 10° ESE visible
20 Nov 8.8 04:24:49 27° SW 04:29:44 38° S 04:36:45 10° ESE visible
21 Nov 10.1 01:22:55 19° ESE 01:22:55 19° ESE 01:25:28 10° ESE visible
21 Nov 8.9 03:28:43 41° SSW 03:29:57 41° S 03:38:12 10° ESE visible
21 Nov 8.9 05:34:32 11° WSW 05:43:12 30° SSW 05:49:07 10° SE visible
22 Nov 9.2 02:32:36 38° SSE 02:32:36 38° SSE 02:39:23 10° ESE visible
22 Nov 8.8 04:38:25 26° WSW 04:43:52 37° SSW 04:51:01 10° SE visible
23 Nov 9.9 01:36:28 24° ESE 01:36:28 24° ESE 01:40:14 10° ESE visible
23 Nov 8.9 03:42:16 41° SSW 03:44:07 43° S 03:52:35 10° ESE visible
23 Nov 9.1 05:48:27 10° W 05:57:05 25° SSW 06:02:52 10° SSE visible
24 Nov 10.5 00:40:19 11° E 00:40:19 11° E 00:40:42 10° E visible
24 Nov 9.1 02:46:07 43° SSE 02:46:07 43° SSE 02:53:51 10° ESE visible
24 Nov 9.0 04:51:56 23° WSW 04:57:52 34° SSW 05:05:04 10° SE visible
25 Nov 9.7 01:49:58 30° ESE 01:49:58 30° ESE 01:54:48 10° ESE visible
25 Nov 9.0 03:55:46 39° SW 03:58:11 42° SSW 04:06:48 10° SE visible
25 Nov 9.4 06:03:18 10° W 06:10:45 20° SW 06:16:06 10° S visible
26 Nov 10.3 00:53:49 15° ESE 00:53:49 15° ESE 00:55:23 10° E visible
26 Nov 9.1 02:59:37 45° S 02:59:37 45° S 03:08:11 10° ESE visible
26 Nov 9.2 05:05:26 20° WSW 05:11:39 29° SSW 05:18:47 10° SSE visible
27 Nov 9.6 02:03:28 34° SE 02:03:28 34° SE 02:09:12 10° ESE visible
27 Nov 9.1 04:09:16 35° SW 04:12:07 38° SSW 04:20:48 10° SE visible
27 Nov 9.7 06:19:00 10° WSW 06:24:11 14° SW 06:28:21 10° SSW visible
28 Nov 10.2 01:07:19 19° ESE 01:07:19 19° ESE 01:09:51 10° ESE visible
28 Nov 9.1 03:13:07 45° S 03:13:07 45° S 03:22:20 10° SE visible
28 Nov 9.5 05:18:56 16° WSW 05:25:13 23° SW 05:32:03 10° S visible
28 Nov 10.8 21:24:13 10° SSW 21:25:13 12° SSW 21:25:13 12° SSW visible
